KIZUNA (WINDS)

Last updated on April 28, 2019, 3:04 a.m. UTC

1 32500U 08007A   19117.50950147 -.00000298  00000-0  00000+0 0  9994
2 32500   2.3038  86.1281 0002354 305.6625 146.3548  1.00245845 40885
UTC
Height (km)
Latitude
Longitude
Inclination
Orbital Period
UTC large
Height (km)
Speed (km/s)
/
Latitude / Longitude
Inclination (degrees)
Orbital Period (minutes)
Azimuth
Elevation
Range (km)
Doppler Factor
iOS Compass Heading
iOS Angle

Next 30 passes for location: Hong Kong

Rise time Rise Azimuth (degrees) Set time Set Azimuth (degrees) Duration Max altitude (degrees)

No matching passes for this satellites